Tracking 23440 objects as of 13-Jun-2021
HD Live streaming from Space Station
objects crossing your sky now

OBJECT B

Track OBJECT B now!
10-day predictions


NORAD ID: 44487
Int'l Code: 2019-052B
Perigee: 532.0 km
Apogee: 564.7 km
Inclination: 97.5 °
Period: 95.5 minutes
Semi major axis: 6919 km
RCS: Unknown
Launch date: August 17, 2019
Source: People's Republic of China (PRC)
Launch site: Jiuquan Satellite Launch Center, China (JSC)
aabbcc
Your satellite tracking list
Your tracking list is empty




NASA's NSSDC Master Catalog

Two Line Element Set (TLE):
1 44487U 19052B   21164.45448175  .00000389  00000-0  28974-4 0  9990
2 44487  97.5381 238.8441 0023631 137.7942 352.2973 15.08355128100404
Source of the keplerian elements: AFSPC